Location: Northcutt
(34.7304°N, 84.4305°W)
Time: 19:00:01
(UTC+00:00)

Transit 2A Rocket - Pass Details

Date: 04 October 2022
Orbit: 589 x 911 km, 66.7° (Epoch: 03 December)

Event Time Altitude Azimuth Distance (km) Brightness Sun altitude
Rises 20:05:21 0° 334° (NNW) 3,056 8.0 35.8°
Reaches altitude 10° 20:07:35 10° 334° (NNW) 2,184 7.4 35.4°
Maximum altitude 20:12:36 86° 64° (ENE) 765 5.6 34.6°
Drops below altitude 10° 20:18:05 10° 153° (SSE) 2,390 7.8 33.7°
Sets 20:20:37 0° 154° (SSE) 3,367 8.4 33.2°
